Regional Weather Roundup
Issued by NWS Goodland, KS

Home | Current Version | Previous Version | Graphics & Text | Print | Product List | Glossary On
Versions: 1 2 3 4 5 6 7 8 9 10 11 12 13 14 15 16 17 18 19 20 21 22 23 24 25 26 27 28 29 30 31 32 33 34 35 36 37 38 39 40 41 42 43 44 45 46 47 48 49 50
000
ASUS43 KGLD 251608
RWRGLD

GOODLAND FORECAST AREA HOURLY WEATHER ROUNDUP
NATIONAL WEATHER SERVICE GOODLAND KS
900 AM MST SUN JAN 25 2015

...OFFICIAL OBSERVATIONS...

CITY           SKY/WX    TMP DP  RH WIND       PRES   REMARKS
GOODLAND KS    SUNNY     42  28  57 NW20G26   30.11R
HILL CITY KS   SUNNY     44  26  49 NW21G33   30.07R
IMPERIAL NEB   SUNNY     38  26  62 NW9       30.09S
MCCOOK NEB     SUNNY     43  24  47 NW24G37   30.06R
AKRON CO       PTSUNNY   38  29  70 W12       30.14R
BURLINGTON CO  SUNNY     40  29  64 NW26      30.13R
LIMON CO       CLOUDY    35  28  75 W3        30.18R
$$

...UNOFFICIAL OBSERVATIONS...

CITY           SKY/WX    TMP DP  RH WIND       PRES   REMARKS
COLBY KS       SUNNY     43  30  61 NW20G26   30.11R
GOVE KS          N/A     43  32  65 MISG        N/A
NORTON KS      SUNNY     41  23  48 NW22G30   30.05R
SHARON SPRINGS   N/A     44  31  60 N17G25      N/A
KIT CARSON CO    N/A     42  32  67 MISG        N/A
YUMA CO          N/A     39  29  69 NW17        N/A
$$


USA.gov is the U.S. government's official web portal to all federal, state and local government web resources and services.